{"data":{"norad_id":68498,"intl_designator":"2026-067CL","name":"IO-1","alt_names":[],"object_type":"PAYLOAD","status":"ACTIVE","operator":null,"country":"UK","launch_date":"2026-03-30","launch_site_code":"AFWTR","launch_vehicle":null,"mission":null,"orbit_class":"UNKNOWN","rcs_meters":null,"size_class":null,"mass_kg":null,"dimensions":null,"purposes":[],"wikipedia_slug":null,"has_3d_model":false,"image_url":null,"decayed_at":null,"tle_current":{"epoch":"2026-09-19T17:08:34.774368Z","epoch_age_seconds":134362,"freshness":"FRESH","line1":"1 68498U 26067CL  26262.71429137  .00000980  00000+0  10229-3 0  9991","line2":"2 68498  97.7646 219.3964 0003958  97.8426 262.3242 14.91947962 25810","mean_motion":14.91947962,"eccentricity":0.0003958,"inclination_deg":97.7646,"raan_deg":219.3964,"arg_perigee_deg":97.8426,"mean_anomaly_deg":262.3242,"bstar":0.00010229,"rev_number":2581,"period_min":96.518111668562,"perigee_km":589.10341084916,"apogee_km":594.62086216562,"semimajor_km":6969.9991365074,"source":"CELESTRAK","updated_at":"2026-09-20T09:00:24.260134Z"}}}